User: anonymous   Login
Location: Caltech
(34.1382°N, 118.1253°W)
Time: 11:48:13
(UTC-07:00)
Language:

Iridium 49 - Orbit

View from above orbital plane
View from above orbital plane
View from above satellite
View from above satellite

Ground track
Ground track

The orbit data is extracted from the following two-line orbital elements,

1 25108U 97082E   16212.47573963 -.00000032  00000-0 -18396-4 0  9996
2 25108  86.3939  29.9071 0002055  82.6702 306.7186 14.34216145974261
Epoch (UTC): 30 July 2016 11:25:03
Eccentricity: 0.0002055
inclination: 86.3939°
perigee height: 776 km
apogee height: 779 km
right ascension of ascending node: 29.9071°
argument of perigee: 82.6702°
revolutions per day: 14.34216145
mean anomaly at epoch: 306.7186°
orbit number at epoch: 97426

The dashed part of the orbit path shows where the satellite is in the earth's shadow,  

DLR